User: anonymous
Location: Unspecified
(0.0000°N, 0.0000°E)
Time: 04:32:04
(UTC+02:00)
Language:

Cosmos 1536 - Orbit

View from above orbital plane
View from above orbital plane
View from above satellite
View from above satellite

Ground track
Ground track

The orbit data is extracted from the following two-line orbital elements,

1 14699U 84013A   14204.12615394  .00000782  00000-0  56998-4 0  1368
2 14699 082.5266 274.3424 0014538 070.4060 289.8733 15.02263030653741
Epoch (UTC): 23 July 2014 03:01:39
Eccentricity: 0.0014538
inclination: 82.5266°
perigee height: 550 km
apogee height: 570 km
right ascension of ascending node: 274.3424°
argument of perigee: 70.4060°
revolutions per day: 15.02263030
mean anomaly at epoch: 289.8733°
orbit number at epoch: 65374

The dashed part of the orbit path shows where the satellite is in the earth's shadow,  

DLR